Overview Statistics Trail Chart Weather Telemetry Raw packets
 

This is the latest recevied weather packets stored in our database for station/object KB1WCR. If no packets are shown the sender has not sent any weather packets the latest 10 day(s).

<< 40 41 42 43 44 45 46 >>
Time Temp. Humidity Pressure Rain* Wind** Luminosity Snow
1788134953 20.56° C 82% 1015.2 hPa 0 mm - 0 W/m² -
1788134648 20.56° C 81% 1015 hPa 0 mm - 0 W/m² -
1788134346 20.56° C 80% 1015.1 hPa 0 mm - 0 W/m² -
1788134041 20.56° C 79% 1015 hPa 0 mm - 0 W/m² -
1788133736 21.11° C 78% 1014.9 hPa 0 mm - 0 W/m² -
1788133432 21.11° C 78% 1014.9 hPa 0 mm - 0 W/m² -
1788133128 21.11° C 77% 1015.1 hPa 0 mm - 0 W/m² -
1788132823 21.11° C 76% 1015 hPa 0 mm - 0 W/m² -
1788132519 21.67° C 75% 1015 hPa 0 mm - 0 W/m² -
1788132214 21.67° C 74% 1015 hPa 0 mm - 0 W/m² -
1788131911 21.67° C 74% 1015 hPa 0 mm - 1 W/m² -
1788131605 21.67° C 75% 1014.9 hPa 0 mm - 1 W/m² -
1788131305 22.22° C 72% 1015.1 hPa 0 mm - 2 W/m² -
1788131000 21.67° C 72% 1014.9 hPa 0 mm - 3 W/m² -
1788130700 21.67° C 73% 1014.8 hPa 0 mm - 4 W/m² -
1788130394 21.67° C 74% 1015.1 hPa 0 mm - 7 W/m² -
1788130089 21.67° C 73% 1014.9 hPa 0 mm - 12 W/m² -
1788129784 21.67° C 73% 1014.9 hPa 0 mm - 15 W/m² -
1788129480 21.67° C 75% 1015 hPa 0 mm - 20 W/m² -
1788129176 22.22° C 74% 1014.9 hPa 0 mm - 25 W/m² -
1788128870 21.67° C 73% 1015 hPa 0 mm - 31 W/m² -
1788128566 21.67° C 74% 1015.2 hPa 0 mm - 34 W/m² -
1788128261 22.22° C 75% 1015.2 hPa 0 mm - 29 W/m² -
1788127958 22.22° C 75% 1014.9 hPa 0 mm - 35 W/m² -
1788127653 22.22° C 75% 1014.7 hPa 0 mm - 38 W/m² -

* Rain latest hour (hover to see other rain measurements)
** Current wind speed in m/s (hover to see current wind gust speed)